SCOUT X-4 R/B

Satellite information

Favourite Embed

Satellite Type and Status

ROCKET BODYIN ORBIT

Key statistics

Satellite SCOUT X-4 R/B at a glance.

Uptime

21888

Days in orbit

Revolutions

≈ 14.5

Per day

Orbit

LEO

Low Earth Orbit

Inclination

59.7

Latest

Satellite identification and parameters

Extended collection of information and parameters for SCOUT X-4 R/B.

Object identification

Identified? True

Debris? False

Object name: SCOUT X-4 R/B

International designator: 1965-093B

Object number (NORAD): 1739

Object ID (CCSDS): 1739

Country: UNITED STATES OF AMERICA (US)

Current information (Y/N): Y

RCS size: MEDIUM

Orbital parameters

Period: 98.981 minutes

Inclination: 59.7037 deg

SMA: 7088.051 km

Apoapsis: 770.519 km

Periapsis: 649.313 km

RAAN: 321.1209 deg

Eccentricy: 0.00855009

Argument of periapsis: 42.6562 deg

Mean anomaly: 318.1079 deg

Mean motion: 14.54830879 rev/day

Mean motion (dot): 0.00000912 rev/day2

B* drag term: 0.00023839722 1/REarth

Two-line elements (TLE)

Creation date: Oct. 23, 2025, 2:46 a.m.

Reference frame: TEME

Reference center: EARTH

Epoch: Oct. 22, 2025, 1:20 p.m. UTC

TLE line 0: 0 SCOUT X-4 R/B

TLE line 1: 1 01739U 65093B 25295.55616573 .00000912 00000-0 23840-3 0 9996

TLE line 2: 2 01739 59.7037 321.1209 0085501 42.6562 318.1079 14.54830879135743

Live tracking on map

Real-time ground track for satellite SCOUT X-4 R/B.

In-orbit conjunctions

A list of the most updated potential collisions computed for object SCOUT X-4 R/B.

Target Orbit TCA Probability of collision Miss distance Type
DELTA 1 DEB SSO 2025-09-30 18:00:41 0.0004407822 392.0 (m) DEBRIS
CZ-2D DEB SSO 2025-08-15 17:13:59 0.0002449254 305.0 (m) DEBRIS
COSMOS 2251 DEB LEO 2024-07-02 05:13:43 0.000538937 80.0 (m) DEBRIS

Associated space launch

The NRL Solrad 8 satellite was one of the Solrad series that began in 1960 to provide continuous coverage of solar radiation with a set of standard photometers.

SCOUT X-4 R/B was lifted into orbit during the mission ‘Scout X-4 | Solrad 8’, on board a Scout X-4 space rocket.

The launch took place on Nov. 19, 1965, 4:48 a.m. from Launch Area 3A.

For more information about the launch, click the button.

Launch to space Scout X-4 | Solrad 8
Scout X-4 | Solrad 8

Agency: N/A

Status: Launch Successful

Launch date: Nov. 19, 1965, 4:48 a.m. UTC

Rocket: Scout X-4

Launch pad: Launch Area 3A

Location: Wallops Flight Facility, Virginia, USA

...

Latest news about this satellite

There are no fresh news available about this satellite. Check back as we update our databases every day.


Newsletter sign-up

Weekly statistics, charts and insights to help you stay on top of the space industry.